Weather History for KMDH - January, 2014

Change the Weather History Date:

Friday, January 24, 2014

  Actual Average Record
Temperature  
Mean Temperature 14 °F -  
Max Temperature 30 °F 43 °F 76 °F (1943)
Min Temperature 1 °F 23 °F -11 °F (1963)
Degree Days  
Heating Degree Days 50    
Moisture  
Dew Point 1 °F    
Average Humidity 52    
Maximum Humidity 80    
Minimum Humidity 34    
Precipitation  
Precipitation 0.00 in - - ()
Sea Level Pressure  
Sea Level Pressure 30.38 in    
Wind  
Wind Speed 11 mph (SSW)    
Max Wind Speed 25 mph    
Max Gust Speed 34 mph    
Visibility 10 miles    
Events      
Averages and records for this station are not official NWS values.
T = Trace of Precipitation, MM = Missing Value Source: NWS Daily Summary

Daily Weather History Graph

Daily Weather History Graph

Search for Another Location

Airport or City:

Trip Planner

Search our weather history database for the weather conditions in past years. The results will help you decide how hot, cold, wet, or windy it might be!

Date:

Astronomy

Jan. 24, 2014 Rise Set
Actual Time 7:06 AM CST 5:11 PM CST
Civil Twilight 6:38 AM CST 5:39 PM CST
Nautical Twilight 6:06 AM CST 6:11 PM CST
Astronomical Twilight 5:35 AM CST 6:42 PM CST
Moon 12:35 AM CST (1/24) 11:29 AM CST (1/24)
Length of Visible Light 11h 01m
Length of Day
10h 04m
Last Quarter, 44% of the Moon is Illuminated
Jan 24
Last Quarter
Jan 30
New
Feb 6
First Quarter
Feb 14
Full
Feb 22
Last Quarter

Hourly Weather History & Observations

Time (CST) Temp. Windchill Dew Point Humidity Pressure Visibility Wind Dir Wind Speed Gust Speed Precip Events Conditions
12:52 AM 3.0 °F - -2.0 °F 80% 30.77 in 10.0 mi Calm Calm - N/A   Clear
1:52 AM 1.9 °F -7.6 °F -2.9 °F 80% 30.75 in 10.0 mi SSW 4.6 mph - N/A   Clear
2:52 AM 3.9 °F -3.4 °F -2.0 °F 76% 30.73 in 10.0 mi SSW 3.5 mph - N/A   Clear
3:52 AM 3.0 °F - -2.9 °F 76% 30.71 in 10.0 mi Calm Calm - N/A   Clear
4:52 AM 3.0 °F -6.4 °F -2.9 °F 76% 30.69 in 10.0 mi South 4.6 mph - N/A   Clear
5:52 AM 3.9 °F -9.4 °F -2.9 °F 73% 30.66 in 10.0 mi SSW 8.1 mph - N/A   Clear
6:52 AM 5.0 °F -8.1 °F -2.0 °F 73% 30.65 in 10.0 mi SSW 8.1 mph - N/A   Clear
7:52 AM 7.0 °F -5.7 °F -0.0 °F 73% 30.63 in 10.0 mi SSW 8.1 mph - N/A   Clear
8:52 AM 10.9 °F -3.4 °F 1.0 °F 64% 30.61 in 10.0 mi SSW 11.5 mph - N/A   Clear
9:52 AM 17.1 °F -0.3 °F 1.9 °F 52% 30.57 in 10.0 mi SSW 21.9 mph 28.8 mph N/A   Clear
10:52 AM 19.9 °F 5.2 °F -0.9 °F 40% 30.53 in 10.0 mi SW 17.3 mph 27.6 mph N/A   Scattered Clouds
11:52 AM 23.0 °F 8.3 °F -0.0 °F 37% 30.46 in 10.0 mi SSW 19.6 mph 27.6 mph N/A   Mostly Cloudy
12:52 PM 25.0 °F 10.6 °F 1.0 °F 36% 30.38 in 10.0 mi SSW 20.7 mph 28.8 mph N/A   Scattered Clouds
1:52 PM 27.0 °F 12.2 °F 3.0 °F 36% 30.29 in 10.0 mi South 24.2 mph 32.2 mph N/A   Clear
2:52 PM 27.0 °F 13.2 °F 1.9 °F 34% 30.24 in 10.0 mi SSW 20.7 mph 29.9 mph N/A   Mostly Cloudy
3:52 PM 27.0 °F 12.5 °F 1.9 °F 34% 30.17 in 10.0 mi South 23.0 mph 34.5 mph N/A   Clear
4:52 PM 27.0 °F 12.2 °F 3.0 °F 36% 30.14 in 10.0 mi SSW 24.2 mph 32.2 mph N/A   Clear
5:52 PM 26.1 °F 10.7 °F 3.9 °F 39% 30.12 in 10.0 mi SSW 25.3 mph 33.4 mph N/A   Clear
6:52 PM 26.1 °F 11.0 °F 5.0 °F 41% 30.08 in 10.0 mi SSW 24.2 mph 32.2 mph N/A   Clear
7:52 PM 27.0 °F 12.5 °F 3.9 °F 37% 30.05 in 10.0 mi SSW 23.0 mph 28.8 mph N/A   Clear
8:52 PM 28.0 °F 15.3 °F 3.9 °F 36% 30.03 in 10.0 mi SW 18.4 mph 28.8 mph N/A   Overcast
9:52 PM 28.9 °F 17.3 °F 5.0 °F 36% 29.99 in 10.0 mi SW 16.1 mph 33.4 mph N/A   Overcast
10:52 PM 28.9 °F 15.8 °F 5.0 °F 36% 29.94 in 10.0 mi SW 20.7 mph 33.4 mph N/A   Mostly Cloudy
11:52 PM 30.0 °F 17.9 °F 6.1 °F 36% 29.90 in 10.0 mi SSW 18.4 mph 29.9 mph N/A   Overcast